When you browse on this site, cookies collect data to enhance your experience and personalize the content and advertising you see.
Visit our Privacy Policy to learn more. By continuing to use the site, you agree to this use of cookies and data.
  • In Hungary
  • List of Countries
  • For 7 days
  • Water Temperature
  • Satellite Maps
  • Weather Map
  • News
  • Weather Widgets
  • user-avatar
    Login

    Hourly Weather Bellevue

    Today, 16 June, Sunday

    Time Temperature Precipitation Wind Pressure Humidity
    00:00 +20°C° 0 mm 3 mps 730 mmHg 84%
    01:00 +19°C° 0 mm 3 mps 730 mmHg 85%
    02:00 +19°C° 0 mm 2 mps 730 mmHg 86%
    03:00 +18°C° 0 mm 2 mps 730 mmHg 88%
    04:00 +18°C° 0 mm 2 mps 731 mmHg 88%
    05:00 +18°C° 0 mm 3 mps 731 mmHg 89%
    06:00 +18°C° 0 mm 3 mps 731 mmHg 89%
    07:00 +20°C° 0 mm 3 mps 732 mmHg 84%
    08:00 +21°C° 0 mm 3 mps 732 mmHg 78%
    09:00 +24°C° 0 mm 3 mps 733 mmHg 72%
    10:00 +25°C° 0 mm 3 mps 733 mmHg 68%
    11:00 +26°C° 0 mm 3 mps 733 mmHg 65%
    12:00 +27°C° 0 mm 3 mps 733 mmHg 61%
    13:00 +28°C° 0 mm 3 mps 733 mmHg 60%
    14:00 +28°C° 0 mm 3 mps 733 mmHg 59%
    15:00 +28°C° 0 mm 3 mps 733 mmHg 58%
    16:00 +28°C° 0 mm 3 mps 732 mmHg 62%
    17:00 +27°C° 0 mm 2 mps 732 mmHg 66%
    18:00 +27°C° 0 mm 2 mps 732 mmHg 70%
    19:00 +25°C° 0 mm 2 mps 732 mmHg 74%
    20:00 +23°C° 0 mm 2 mps 732 mmHg 78%
    21:00 +21°C° 0 mm 1 mps 732 mmHg 83%
    22:00 +21°C° 0 mm 1 mps 733 mmHg 86%
    23:00 +20°C° 0 mm 1 mps 733 mmHg 88%

    Tomorrow, 17 June, Monday

    Time Temperature Precipitation Wind Pressure Humidity
    00:00 +20°C° 0 mm 1 mps 733 mmHg 91%
    01:00 +19°C° 0 mm 1 mps 733 mmHg 92%
    02:00 +19°C° 0 mm 1 mps 733 mmHg 93%
    03:00 +19°C° 0 mm 1 mps 733 mmHg 94%
    04:00 +19°C° 0 mm 1 mps 733 mmHg 94%
    05:00 +19°C° 0 mm 1 mps 733 mmHg 93%
    06:00 +19°C° 0 mm 1 mps 734 mmHg 93%
    07:00 +21°C° 0 mm 1 mps 734 mmHg 88%
    08:00 +22°C° 0 mm 1 mps 734 mmHg 83%
    09:00 +24°C° 0 mm 1 mps 734 mmHg 78%
    10:00 +25°C° 0 mm 1 mps 734 mmHg 74%
    11:00 +26°C° 0 mm 1 mps 734 mmHg 70%
    12:00 +27°C° 0 mm 1 mps 734 mmHg 67%
    13:00 +27°C° 0.8 mm 1 mps 734 mmHg 67%
    14:00 +27°C° 0.8 mm 2 mps 734 mmHg 67%
    15:00 +27°C° 0.8 mm 2 mps 733 mmHg 67%
    16:00 +27°C° 0.9 mm 2 mps 733 mmHg 69%
    17:00 +27°C° 0.9 mm 2 mps 733 mmHg 71%
    18:00 +26°C° 0.9 mm 2 mps 733 mmHg 73%
    19:00 +25°C° 0.1 mm 2 mps 733 mmHg 78%
    20:00 +23°C° 0.1 mm 2 mps 733 mmHg 83%
    21:00 +21°C° 0.1 mm 2 mps 734 mmHg 88%
    22:00 +21°C° 0 mm 2 mps 734 mmHg 89%
    23:00 +20°C° 0 mm 2 mps 734 mmHg 90%

    Day after tomorrow, 18 June, Tuesday

    Time Temperature Precipitation Wind Pressure Humidity
    00:00 +20°C° 0 mm 2 mps 734 mmHg 92%
    01:00 +20°C° 0 mm 2 mps 734 mmHg 93%
    02:00 +19°C° 0 mm 2 mps 733 mmHg 95%
    03:00 +19°C° 0 mm 2 mps 733 mmHg 96%
    04:00 +19°C° 0 mm 2 mps 733 mmHg 96%
    05:00 +19°C° 0 mm 2 mps 733 mmHg 95%
    06:00 +19°C° 0 mm 2 mps 733 mmHg 95%
    07:00 +20°C° 0.4 mm 2 mps 734 mmHg 90%
    08:00 +23°C° 0.4 mm 2 mps 734 mmHg 86%
    09:00 +24°C° 0.4 mm 2 mps 734 mmHg 81%
    10:00 +25°C° 1.4 mm 2 mps 734 mmHg 78%
    11:00 +26°C° 1.4 mm 2 mps 734 mmHg 74%
    12:00 +27°C° 1.4 mm 2 mps 733 mmHg 71%
    13:00 +27°C° 0.9 mm 3 mps 733 mmHg 71%
    14:00 +27°C° 0.9 mm 3 mps 732 mmHg 72%
    15:00 +27°C° 0.9 mm 3 mps 732 mmHg 72%
    16:00 +26°C° 1.3 mm 3 mps 732 mmHg 78%
    17:00 +23°C° 1.3 mm 4 mps 731 mmHg 85%
    18:00 +21°C° 1.3 mm 5 mps 731 mmHg 91%
    19:00 +20°C° 0.3 mm 4 mps 731 mmHg 92%
    20:00 +20°C° 0.3 mm 4 mps 731 mmHg 93%
    21:00 +19°C° 0.3 mm 3 mps 731 mmHg 95%
    22:00 +19°C° 1.1 mm 3 mps 731 mmHg 95%
    23:00 +19°C° 1.1 mm 3 mps 731 mmHg 96%

    19 June, Wednesday

    Time Temperature Precipitation Wind Pressure Humidity
    00:00 +19°C° 1.1 mm 2 mps 731 mmHg 97%
    01:00 +19°C° 1.6 mm 3 mps 730 mmHg 97%
    02:00 +19°C° 1.6 mm 3 mps 730 mmHg 97%
    03:00 +19°C° 1.6 mm 3 mps 729 mmHg 97%
    04:00 +18°C° 0.6 mm 3 mps 729 mmHg 96%
    05:00 +18°C° 0.6 mm 3 mps 729 mmHg 96%
    06:00 +18°C° 0.6 mm 3 mps 729 mmHg 96%
    07:00 +19°C° 0.8 mm 3 mps 729 mmHg 96%
    08:00 +19°C° 0.8 mm 3 mps 729 mmHg 95%
    09:00 +19°C° 0.8 mm 4 mps 729 mmHg 95%
    10:00 +20°C° 0.3 mm 4 mps 729 mmHg 93%
    11:00 +20°C° 0.3 mm 4 mps 728 mmHg 92%
    12:00 +21°C° 0.3 mm 4 mps 728 mmHg 90%
    13:00 +21°C° 0.2 mm 3 mps 728 mmHg 88%
    14:00 +22°C° 0.2 mm 3 mps 727 mmHg 87%
    15:00 +22°C° 0.2 mm 3 mps 727 mmHg 85%
    16:00 +22°C° 0.8 mm 3 mps 727 mmHg 85%
    17:00 +22°C° 0.8 mm 4 mps 727 mmHg 85%
    18:00 +22°C° 0.8 mm 5 mps 726 mmHg 86%
    19:00 +21°C° 0.4 mm 4 mps 726 mmHg 87%
    20:00 +20°C° 0.4 mm 4 mps 727 mmHg 89%
    21:00 +19°C° 0.4 mm 4 mps 727 mmHg 91%
    22:00 +19°C° 0 mm 4 mps 727 mmHg 92%
    23:00 +18°C° 0 mm 3 mps 727 mmHg 93%

    20 June, Thursday

    Time Temperature Precipitation Wind Pressure Humidity
    00:00 +17°C° 0 mm 3 mps 727 mmHg 93%
    01:00 +17°C° 0 mm 3 mps 727 mmHg 94%
    02:00 +16°C° 0 mm 3 mps 726 mmHg 94%
    03:00 +15°C° 0 mm 4 mps 726 mmHg 95%
    04:00 +15°C° 0 mm 4 mps 727 mmHg 95%
    05:00 +15°C° 0 mm 4 mps 728 mmHg 95%
    06:00 +15°C° 0 mm 4 mps 729 mmHg 95%
    07:00 +18°C° 0 mm 3 mps 729 mmHg 90%
    08:00 +19°C° 0 mm 3 mps 729 mmHg 86%
    09:00 +21°C° 0 mm 3 mps 729 mmHg 81%
    10:00 +22°C° 0 mm 3 mps 729 mmHg 76%
    11:00 +24°C° 0 mm 3 mps 729 mmHg 71%
    12:00 +25°C° 0 mm 2 mps 729 mmHg 65%
    13:00 +26°C° 0 mm 2 mps 729 mmHg 65%
    14:00 +26°C° 0 mm 2 mps 729 mmHg 64%
    15:00 +26°C° 0 mm 2 mps 729 mmHg 63%
    16:00 +26°C° 0 mm 2 mps 729 mmHg 65%
    17:00 +26°C° 0 mm 2 mps 729 mmHg 67%
    18:00 +26°C° 0 mm 1 mps 729 mmHg 69%
    19:00 +24°C° 0 mm 1 mps 729 mmHg 73%
    20:00 +23°C° 0 mm 2 mps 730 mmHg 77%
    21:00 +20°C° 0 mm 2 mps 730 mmHg 81%
    22:00 +19°C° 0 mm 2 mps 730 mmHg 84%
    23:00 +19°C° 0 mm 2 mps 730 mmHg 87%

    21 June, Friday

    Time Temperature Precipitation Wind Pressure Humidity
    00:00 +18°C° 0 mm 3 mps 730 mmHg 90%
    01:00 +18°C° 0 mm 2 mps 730 mmHg 92%
    02:00 +18°C° 0 mm 2 mps 730 mmHg 93%
    03:00 +17°C° 0 mm 2 mps 729 mmHg 94%
    04:00 +18°C° 0.3 mm 3 mps 729 mmHg 94%
    05:00 +18°C° 0.3 mm 3 mps 729 mmHg 93%
    06:00 +19°C° 0.3 mm 4 mps 729 mmHg 92%
    07:00 +19°C° 4.2 mm 5 mps 729 mmHg 92%
    08:00 +20°C° 4.2 mm 5 mps 729 mmHg 92%
    09:00 +20°C° 4.2 mm 6 mps 729 mmHg 92%
    10:00 +21°C° 1.9 mm 6 mps 729 mmHg 93%
    11:00 +22°C° 1.9 mm 5 mps 729 mmHg 93%
    12:00 +23°C° 1.9 mm 5 mps 728 mmHg 93%
    13:00 +23°C° 2.8 mm 5 mps 728 mmHg 94%
    14:00 +23°C° 2.8 mm 4 mps 728 mmHg 95%
    15:00 +23°C° 2.8 mm 4 mps 727 mmHg 95%
    16:00 +25°C° 0.8 mm 4 mps 727 mmHg 95%
    17:00 +26°C° 0.8 mm 4 mps 727 mmHg 95%
    18:00 +26°C° 0.8 mm 3 mps 727 mmHg 94%
    19:00 +25°C° 2.6 mm 4 mps 728 mmHg 95%
    20:00 +25°C° 2.6 mm 4 mps 728 mmHg 96%
    21:00 +23°C° 2.6 mm 4 mps 728 mmHg 97%
    22:00 +23°C° 0.9 mm 5 mps 729 mmHg 96%
    23:00 +22°C° 0.9 mm 6 mps 729 mmHg 95%
    Show more